Location: Blankenburg
(48.5836°N, 10.8236°E)
Time: 18:12:20
(UTC+00:00)

Daily predictions for brighter satellites

Satellite Brightness Start Highest point End
(mag) Time Altitude Azimuth Time Altitude Azimuth Time Altitude Azimuth
Cosmos 1269 Rocket 4.2 18:12:49 10° SSW 18:18:06 82° WNW 18:23:28 10° NNE
STARLINK-1230 4.1 18:14:45 10° W 18:18:52 62° NNW 18:23:00 10° ENE
STARLINK-1144 4.0 18:18:38 10° WNW 18:22:45 63° SSW 18:26:50 10° SE
STARLINK-1243 4.1 18:19:45 10° W 18:23:51 60° NNW 18:27:58 10° ENE
STARLINK-1209 4.1 18:21:18 10° WNW 18:24:02 33° N 18:26:47 10° ENE
ARGOS Delta rocket 4.1 18:21:56 10° SSE 18:27:09 78° ENE 18:32:37 10° N
Cosmos 292 Rocket 3.9 18:22:46 10° NNW 18:27:32 58° ENE 18:32:16 10° SE
STARLINK-1103 4.0 18:23:37 10° WNW 18:27:42 59° SSW 18:31:47 10° SE
Cosmos 2251 Rocket 4.0 18:23:44 10° S 18:28:41 39° ESE 18:33:40 10° NE
STARLINK-1236 4.2 18:24:48 10° W 18:28:54 58° NNW 18:33:00 10° ENE
Cosmos 1953 2.9 18:28:08 10° SSE 18:31:44 34° E 18:35:21 10° NNE
Cosmos 1455 Rocket 3.8 18:27:28 10° SSW 18:31:45 58° WNW 18:36:06 10° N
MONITOR-E 4.1 18:30:06 10° SSE 18:32:38 45° ENE 18:35:12 10° N
STARLINK-1101 4.1 18:28:37 10° WNW 18:32:40 55° SSW 18:36:43 10° SE
Cosmos 2315 Rocket 4.0 18:28:44 10° S 18:35:03 78° E 18:41:27 10° NNE
STARLINK-1102 4.2 18:33:37 10° WNW 18:37:39 51° SW 18:41:40 10° SE
Resurs 01 Rocket 2.9 18:34:58 10° ESE 18:38:26 23° ENE 18:41:54 10° N
Cosmos 1626 Rocket 3.7 18:34:03 10° N 18:38:28 82° W 18:42:48 10° S
FREGAT/IRIS 2.3 18:35:56 10° SSE 18:38:37 67° ENE 18:41:21 10° N
STARLINK-1269 4.3 18:34:46 10° W 18:38:50 54° NNW 18:42:56 10° ENE
Cosmos 2369 Rocket 2.2 18:33:09 10° NNW 18:38:51 70° ENE 18:44:30 10° SE
Aureole 3 4.0 18:35:33 10° S 18:39:55 55° E 18:45:30 10° NNE
NOSS 3-3 (A) 4.2 18:35:31 10° S 18:41:02 45° ESE 18:47:12 10° NE
Cosmos 1626 3.3 18:37:31 10° NNW 18:41:06 46° W 18:44:38 10° SSW
NOSS 3-3 (C) 4.2 18:35:38 10° S 18:41:08 44° ESE 18:47:16 10° NE
STARLINK-1111 4.4 18:38:36 10° WNW 18:42:36 48° SW 18:46:35 10° SE
STARLINK-1200 4.3 18:39:46 10° W 18:43:50 52° NNW 18:47:54 10° ENE
Cosmos 1943 Rocket 2.2 18:39:20 10° NNW 18:44:54 84° WSW 18:50:29 10° SSE
Cosmos 1437 3.4 18:42:28 10° N 18:45:15 32° ENE 18:47:33 13° SE
IRIDIUM 104 4.4 18:40:07 10° N 18:45:16 56° E 18:50:23 10° SSE
SL-8 R/B 3.9 18:40:59 10° W 18:45:44 66° SSW 18:49:51 14° ESE
ADEOS Rocket 4.0 18:39:28 10° N 18:45:57 54° WNW 18:51:46 10° SW
Cosmos 1709 Rocket 4.4 18:39:54 10° NNW 18:46:04 68° W 18:52:07 10° S
STARLINK-1073 4.5 18:43:37 10° WNW 18:47:34 44° SW 18:51:29 10° SE
CZ-2C R/B 4.3 18:43:42 10° NNE 18:48:08 37° E 18:52:26 10° SSE
Cosmos 1602 Rocket 3.7 18:43:46 10° N 18:48:15 84° W 18:52:39 10° S
STARLINK-1192 4.4 18:44:47 10° W 18:48:50 51° NNW 18:52:54 10° ENE
Cosmos 1470 3.1 18:48:21 10° SSW 18:52:12 68° W 18:56:08 10° N
STARLINK-1244 4.4 18:49:47 10° W 18:53:50 50° N 18:57:53 10° ENE
Cosmos 2263 4.2 18:48:35 10° NNW 18:54:12 68° ENE 18:59:32 11° SE
IRIDIUM 114 4.3 18:49:14 10° N 18:54:27 67° E 18:59:38 10° SSE
Cosmos 1908 4.4 18:52:24 13° SE 18:54:51 23° E 18:57:56 10° NE
Ariane Rocket 3.5 18:51:13 10° S 18:56:15 64° WSW 19:01:18 10° NNW
STARLINK-1138 4.4 18:54:48 10° W 18:58:50 49° N 19:02:53 10° ENE
Abrixas rocket 1.9 18:56:27 10° WSW 18:59:24 71° SSE 19:01:18 20° E
Aureole 2 Rocket 2.8 18:56:16 10° NNW 18:59:45 65° WSW 19:03:09 10° SSE
STARLINK-67 3.9 18:57:56 10° WNW 19:00:16 29° N 19:01:57 15° ENE
Cosmos 2074 Rocket 4.0 18:54:47 10° N 19:01:04 68° E 19:07:19 10° SSE
Cosmos 1726 Rocket 4.3 18:57:44 10° SSE 19:01:36 31° E 19:05:29 10° NNE
ATLAS 2AS CENTAUR R/B 3.2 18:55:38 10° NW 19:03:15 56° NE 19:08:47 17° ESE
IRIDIUM 103 4.3 18:58:24 10° N 19:03:39 80° E 19:08:52 10° S
STARLINK-1143 4.4 18:59:45 10° W 19:03:47 48° N 19:07:48 10° ENE
Cosmos 1943 3.4 18:58:47 10° S 19:04:10 48° ESE 19:09:38 10° NE
ISS -2.6 19:01:59 10° W 19:05:05 35° SW 19:07:16 16° SSE
Cosmos 1825 Rocket 3.6 19:01:35 10° N 19:05:59 61° ENE 19:10:01 12° SSE
USA 234 3.7 19:00:32 10° ENE 19:06:30 37° SE 19:12:27 10° SSW
SL-08 RB Rocket 3.7 19:04:00 10° SSE 19:08:32 90° NNE 19:13:10 10° NNW
STARLINK-1241 4.5 19:04:50 10° W 19:08:51 47° N 19:12:39 11° ENE
SPOT 3 Rocket 3.5 19:07:26 10° SSE 19:12:40 80° ENE 19:17:53 10° NNW
SeaSat 1 4.4 19:12:21 10° NNE 19:16:41 31° NW 19:21:00 10° WSW
Cosmos 1758 Rocket 3.5 19:13:23 10° N 19:17:46 87° W 19:22:05 10° S
SJ-6B 3.5 19:15:04 10° S 19:19:06 57° W 19:23:12 10° NNW
MOS 1 Rocket 3.7 19:17:32 10° NNE 19:22:45 54° E 19:28:03 10° S
CZ-4C R/B 4.4 19:19:35 10° NW 19:24:25 22° N 19:29:54 10° ENE
Cosmos 1953 Rocket 3.6 19:20:31 10° N 19:24:58 65° ENE 19:27:53 21° SSE
SL-16 R/B 3.9 19:20:34 10° WSW 19:25:44 35° NW 19:30:55 10° NNE
CZ-2C R/B 4.1 19:24:05 10° S 19:28:47 42° W 19:33:21 10° NNW
Cosmos 1818 3.6 19:24:05 10° SSW 19:29:21 54° ESE 19:34:40 10° NE
Cosmos 1606 Rocket 3.5 19:25:12 10° S 19:29:36 73° E 19:34:04 10° NNE
Terra 3.8 19:28:43 13° ENE 19:29:40 14° NE 19:32:04 10° NNE
Cosmos 921 Rocket 3.8 19:28:06 10° N 19:31:54 32° ENE 19:32:50 28° E
BREEZE M DEB (TANK) 3.9 19:23:42 10° SW 19:33:00 43° SSE 19:34:30 31° ESE
STARLINK-1233 4.1 19:30:27 10° WNW 19:33:24 36° N 19:34:37 25° NE
Cosmos 614 Rocket 4.2 19:28:27 10° S 19:33:26 47° ESE 19:38:25 10° NNE
STARLINK-1212 4.1 19:30:55 10° WNW 19:33:51 36° N 19:35:01 26° NE
STARLINK-1105 4.1 19:31:21 10° WNW 19:34:19 36° N 19:35:29 26° NE
Cosmos 407 Rocket 3.8 19:30:03 12° S 19:34:31 40° ESE 19:39:17 10° NE
SL-24 R/B 4.0 19:30:10 10° NNE 19:34:35 83° WNW 19:38:28 10° SSW
STARLINK-1206 4.1 19:31:50 10° WNW 19:34:46 36° N 19:35:53 26° NE
CZ-2C R/B 2.5 19:29:38 10° NNE 19:34:47 62° E 19:39:55 10° S
STARLINK-1247 4.1 19:32:17 10° WNW 19:35:13 36° N 19:36:19 26° NE
STARLINK-1227 4.1 19:32:41 10° WNW 19:35:39 36° N 19:36:46 27° NE
Cosmos 2228 2.9 19:31:23 10° S 19:35:40 79° E 19:40:00 10° NNE
STARLINK-1218 4.1 19:33:12 10° WNW 19:36:08 36° N 19:37:11 27° NE
STARLINK-1226 4.1 19:33:37 10° WNW 19:36:34 36° N 19:37:37 27° NE
Cosmos 1656 Rocket 3.7 19:31:00 10° NNW 19:36:43 88° WSW 19:40:14 24° SSE
STARLINK-1254 4.1 19:34:04 10° WNW 19:37:01 36° N 19:38:04 27° NE
STARLINK-1215 4.1 19:34:34 10° WNW 19:37:30 36° N 19:38:30 28° NE
STARLINK-1231 4.1 19:35:01 10° WNW 19:37:57 36° N 19:38:56 28° NE
SPOT 1/Viking Rocket 4.4 19:36:24 27° E 19:38:04 33° ENE 19:42:41 10° N
Cosmos 2327 Rocket 4.5 19:32:10 10° N 19:38:30 88° E 19:44:16 13° S
STARLINK-1232 4.1 19:35:55 10° WNW 19:38:51 36° N 19:39:47 28° NE
STARLINK-1217 4.1 19:36:21 10° WNW 19:39:18 36° N 19:40:14 29° NE
STARLINK-1208 4.1 19:36:46 10° WNW 19:39:44 36° N 19:40:40 29° NE
STARLINK-1229 4.1 19:37:15 10° WNW 19:40:11 36° N 19:41:04 29° NE
IGS 5A 4.4 19:39:45 29° E 19:40:13 30° ENE 19:43:53 10° N
STARLINK-1271 4.1 19:37:42 10° WNW 19:40:39 36° N 19:41:32 30° NE
STARLINK-1270 4.1 19:38:10 10° WNW 19:41:07 36° N 19:41:57 30° NE
STARLINK-1154 4.1 19:38:37 10° WNW 19:41:33 36° N 19:42:23 30° NE
ARGOS 4.5 19:36:51 10° SSW 19:41:52 39° W 19:46:54 10° NNW
Cosmos 1295 Rocket 4.5 19:36:10 10° N 19:42:26 67° ENE 19:46:25 24° SSE
STARLINK-1197 4.0 19:39:31 10° WNW 19:42:27 37° N 19:43:15 31° NE
SAR-Lupe-2 4.1 19:39:14 10° NNE 19:42:09 38° ENE 19:42:09 38° ENE
STARLINK-1189 4.0 19:40:00 10° WNW 19:42:56 37° N 19:43:42 31° NE
STARLINK-1198 4.0 19:40:25 10° WNW 19:43:22 37° N 19:44:07 31° NE
STARLINK-1188 4.0 19:40:52 10° WNW 19:43:49 37° N 19:44:33 31° NE
STARLINK-1235 3.9 19:41:32 10° WNW 19:44:32 39° N 19:45:11 34° NE
STARLINK-1187 3.9 19:41:51 10° WNW 19:44:51 38° N 19:45:33 33° NE
BREEZE-M DEB (TANK) 3.2 19:39:51 10° WNW 19:45:24 64° SSW 19:45:58 51° SSE
SL-4 R/B 3.2 19:42:20 10° SSW 19:43:45 21° SSW 19:43:45 21° SSW
Cosmos 2341 Rocket 4.2 19:39:17 10° N 19:45:33 54° ENE 19:48:37 30° SE
COSMOS 2455 3.3 19:39:52 10° NNW 19:45:43 48° NE 19:48:18 30° ESE
STARLINK-1199 4.0 19:42:48 10° WNW 19:45:47 37° N 19:46:28 33° NE
STARLINK-1191 4.0 19:43:16 10° WNW 19:46:15 37° N 19:46:54 33° NE
STARLINK-1201 4.1 19:43:26 10° WNW 19:46:32 38° N 19:47:21 32° NE
STARLINK-1210 4.0 19:43:43 10° WNW 19:46:42 38° N 19:47:20 33° NE
STARLINK-1221 4.0 19:44:10 10° WNW 19:47:09 38° N 19:47:46 33° NE
STARLINK-1219 3.9 19:44:36 10° WNW 19:47:36 38° N 19:48:12 34° NE
Cosmos 1603 4.0 19:42:11 10° SW 19:47:47 69° WNW 19:53:24 10° NNE
STARLINK-1222 3.9 19:45:04 10° WNW 19:48:03 38° N 19:48:38 34° NE
Cosmos 1726 3.3 19:44:32 10° SSW 19:48:08 44° WNW 19:51:45 10° N
Cosmos 1340 Rocket 2.9 19:47:47 47° SE 19:48:28 53° E 19:52:25 10° NNE
STARLINK-1211 3.9 19:45:32 10° WNW 19:48:30 38° N 19:49:04 34° NE
STARLINK-1214 3.9 19:45:59 10° WNW 19:48:58 38° N 19:49:31 35° NE
ERS-1 Rocket 3.9 19:47:58 28° E 19:48:58 31° ENE 19:53:22 10° N
STARLINK-1234 3.7 19:46:26 10° WNW 19:49:22 40° NNE 19:49:39 39° NNE
STARLINK-1228 3.6 19:46:36 10° WNW 19:49:23 39° NNE 19:49:30 39° NNE
STARLINK-1245 3.9 19:46:28 10° WNW 19:49:25 38° N 19:49:55 35° NNE
STARLINK-1238 3.9 19:46:52 10° WNW 19:49:52 38° N 19:50:23 35° NE
STARLINK-1205 3.9 19:47:49 10° WNW 19:50:47 38° N 19:51:14 36° NNE
H-2A R/B 4.0 19:46:26 10° SSW 19:50:51 27° W 19:55:11 10° NW
STARLINK-1204 3.9 19:48:16 10° WNW 19:51:14 38° N 19:51:39 36° NNE
Cosmos 1328 4.3 19:49:19 10° NNW 19:53:17 59° W 19:55:27 25° SSW
Resurs 1-3 4.4 19:51:24 16° S 19:54:42 50° W 19:59:00 10° NNW
STARLINK-1230 4.5 19:54:54 10° WNW 19:58:53 44° N 20:00:28 30° NE
STARLINK-1209 3.7 19:56:49 10° WNW 19:59:26 42° N 19:59:26 42° N
STARLINK-1243 4.5 19:59:52 10° WNW 20:03:52 45° N 20:05:14 33° NE
ATLAS CENTAUR R/B 4.0 20:03:28 10° N 20:04:08 10° NNE 20:04:48 10° NNE
Cosmos 1703 4.4 20:00:57 10° NNW 20:04:42 42° W 20:06:52 22° SSW
Cosmos 2218 Rocket 4.3 20:00:19 10° N 20:06:18 48° ENE 20:07:52 40° ESE
Cosmos 1461 3.1 20:02:43 10° NW 20:07:13 69° NE 20:07:55 58° E
ERBS 4.1 20:05:21 10° NW 20:08:09 23° NNE 20:08:37 22° NNE
STARLINK-1236 4.4 20:04:56 10° WNW 20:08:56 45° N 20:10:04 36° NE
Cosmos 1076 Rocket 4.4 20:07:47 10° N 20:11:09 34° NE 20:11:09 34° NE
Cosmos 1023 Rocket 4.4 20:11:23 44° SSE 20:12:51 64° ESE 20:17:57 10° NNE
Resurs 01 Rocket 2.5 20:12:28 25° SSW 20:14:40 45° W 20:18:56 10° NNW
APEX 4.5 20:10:50 10° NNW 20:17:35 72° WSW 20:19:40 41° S
STARLINK-1269 4.3 20:14:53 10° WNW 20:18:54 47° N 20:19:36 42° NE
In-Cosmos 22 Rocket 4.4 20:13:28 10° N 20:19:13 56° ENE 20:20:12 50° ESE
USA 245 4.2 20:18:18 45° SSE 20:20:07 88° W 20:26:21 10° NNW
Cosmos 2181 Rocket 4.0 20:18:41 45° SSE 20:20:23 61° E 20:26:30 10° NNE
Cosmos 2058 Rocket 3.4 20:18:19 29° SSW 20:20:30 67° WNW 20:25:02 10° N
NOSS 3-4 (A) 3.9 20:14:56 10° NW 20:21:52 71° SW 20:24:57 38° SSE
NOSS 3-4 (C) 3.9 20:15:02 10° NW 20:21:59 72° SW 20:25:02 39° SSE
Cosmos 2369 Rocket 4.3 20:18:09 10° NW 20:22:19 21° W 20:26:26 10° SSW
Cosmos 1300 3.5 20:23:46 42° NNE 20:23:46 42° NNE 20:26:26 10° NNE
STARLINK-1200 4.3 20:19:51 10° WNW 20:23:53 47° N 20:24:22 45° NNE
Landsat 7 3.7 20:24:18 70° SSE 20:24:51 85° ENE 20:29:39 10° NNW
Cosmos 1763 Rocket 4.3 20:23:52 10° N 20:28:38 34° ENE 20:28:47 34° ENE
STARLINK-1192 4.3 20:24:51 10° WNW 20:28:53 48° N 20:29:09 47° NNE
SL-8 Rocket 3.9 20:24:48 10° N 20:31:09 83° E 20:32:55 51° SSE
STARLINK-1244 4.3 20:29:51 10° WNW 20:33:54 49° N 20:33:56 49° NNE
Cosmos 864 Rocket 4.4 20:29:21 10° N 20:35:37 70° E 20:36:39 59° SE
CARTOSAT-1 3.9 20:36:52 55° NNE 20:36:52 55° NNE 20:40:29 10° N
SPOT 5 3.0 20:39:20 54° NNE 20:39:20 54° NNE 20:42:57 10° N
SL-24 R/B - RUBIN 2 4.1 20:33:16 10° SSW 20:38:53 81° SE 20:45:15 10° NE
STARLINK-1138 4.3 20:34:51 10° WNW 20:38:43 50° N 20:38:43 50° N
Cosmos 2058 3.7 20:34:53 10° N 20:37:54 45° NNE 20:37:54 45° NNE
Cosmos 2366 rocket 3.8 20:35:19 10° N 20:41:30 80° E 20:42:31 63° SSE
STARLINK-1143 4.4 20:39:47 10° WNW 20:43:27 50° N 20:43:27 50° N
Cosmos 1190 Rocket 4.3 20:40:52 20° SW 20:44:33 67° WNW 20:49:51 10° NNE
Spot 2 Rocket 4.2 20:46:22 39° SW 20:47:38 47° W 20:52:35 10° NNW
STARLINK-1241 4.5 20:44:49 10° WNW 20:48:18 48° NNW 20:48:18 48° NNW
USA 234 3.2 20:43:21 10° NE 20:49:55 83° NNW 20:56:28 10° WSW
Cosmos 1959 Rocket 4.4 20:46:06 10° N 20:52:29 85° W 20:53:38 62° S
Cosmos 1140 Rocket 3.8 20:51:22 36° SW 20:53:24 64° WNW 20:58:33 10° NNE
ATLAS 2AS CENTAUR R/B 3.5 20:47:03 10° NW 20:54:08 45° WSW 20:56:14 36° SSW
Iridium 4 Rocket 3.7 20:53:22 10° N 20:56:43 51° NNW 20:56:43 51° NNW
Meteor 2-12 Rocket 4.2 20:53:21 10° N 20:59:30 85° E 20:59:54 78° SE
RESURS DK-1 4.2 20:57:15 10° NNW 20:59:42 24° NNE 20:59:42 24° NNE
BREEZE M DEB (TANK) 3.6 21:02:07 66° SE 21:02:07 66° SE 21:15:26 10° ENE
Cosmos 841 Rocket 4.5 20:57:16 10° N 21:01:39 36° NE 21:01:39 36° NE
Terra 2.2 21:07:36 59° N 21:07:36 59° N 21:11:29 10° NNW
Cosmos 1697 Rocket 3.6 21:01:45 10° NNW 21:06:58 37° NE 21:06:58 37° NE
Cosmos 468 Rocket 4.2 21:05:05 10° NNW 21:09:34 66° N 21:09:34 66° N
Cosmos 676 Rocket 4.3 21:12:05 62° W 21:12:26 63° WNW 21:17:40 10° NNE
CZ-4C R/B 3.8 21:08:38 10° NW 21:14:53 38° NNE 21:17:32 30° ENE
Mayak 1.2 21:12:30 10° NNE 21:13:22 15° NNE 21:13:22 15° NNE
SL-08 R/B 4.3 21:10:51 10° N 21:17:00 83° W 21:17:08 83° SW
SPOT 1/Viking Rocket 4.4 21:17:02 40° WSW 21:17:22 41° W 21:22:18 10° NNW
Cosmos 1821 Rocket 4.0 21:17:53 10° N 21:23:55 70° NE 21:23:55 70° NE
Cosmos 489 Rocket 4.5 21:21:03 10° NNW 21:26:55 73° NNE 21:26:55 73° NNE
ERS-1 Rocket 4.0 21:27:58 40° W 21:27:58 40° W 21:32:24 10° NNW
COSMOS 2455 3.7 21:26:02 10° NW 21:31:27 39° WSW 21:31:27 39° WSW
ASTEX 1 4.4 21:33:47 41° N 21:33:47 41° N 21:37:05 10° N
Cosmos 1980 Rocket 3.3 21:29:12 10° NNW 21:33:52 33° NE 21:33:52 33° NE
Cosmos 1934 Rocket 4.4 21:30:17 10° N 21:35:38 52° NE 21:35:38 52° NE
ATLAS CENTAUR R/B 3.8 21:40:50 10° NNW 21:42:19 19° N 21:42:19 19° N
Cosmos 1656 4.3 21:45:58 10° NNW 21:50:24 53° NW 21:50:24 53° NW
Cosmos 2082 Rocket 4.2 22:02:45 17° NE 22:02:45 17° NE 22:04:13 10° NE
ATLAS 5 CENTAUR R/B 3.5 22:02:17 29° N 22:02:17 29° N 22:05:28 10° NNE
COSMOS 2406 4.3 22:09:22 39° NNE 22:09:22 39° NNE 22:12:55 10° NNE
Cosmos 1833 Rocket 4.2 22:21:36 30° NE 22:21:36 30° NE 22:24:22 10° NNE
USA 234 4.1 22:26:24 10° ENE 22:32:35 47° NNW 22:38:46 10° W
Cosmos 1697 Rocket 4.3 22:45:44 10° NW 22:48:42 29° WNW 22:48:42 29° WNW
Mayak 1.5 22:48:41 10° NNW 22:49:57 16° NNW 22:49:57 16° NNW
SL-16 R/B 3.4 22:56:37 10° NNW 23:00:33 38° NNE 23:00:33 38° NNE
CZ-4C R/B 3.1 22:57:01 10° NW 23:02:43 62° NW 23:02:43 62° NW
Cosmos 2360 Rocket 3.8 23:06:12 10° NNW 23:10:44 29° NE 23:10:44 29° NE
Cosmos 2322 Rocket 3.5 23:07:57 10° NNW 23:11:48 37° N 23:11:48 37° N
Cosmos 1980 Rocket 3.9 23:13:07 10° NW 23:15:38 26° NW 23:15:38 26° NW
Resurs 1-4 Rocket 4.5 23:34:23 10° NE 23:36:00 14° ENE 23:36:00 14° ENE
Cosmos 2344 4.4 23:28:50 10° NW 23:38:25 65° WSW 23:38:51 64° SW
Cosmos 2082 Rocket 3.5 23:44:35 37° NNW 23:44:35 37° NNW 23:48:32 10° NNE
CZ-2D R/B 4.3 23:45:57 10° NE 23:48:41 18° ENE 23:48:41 18° ENE
